CCA121 ZKPY-ZBAA

Flight info

Callsign CCA121
Flight time 1h 34m
Altitude 34100
Route JON11D JONJU L683 YOMJU A575 GOLOT A345 BIDIB A575 UKDUM W49 OSUBA OSUBA6J
Aircraft B738/M-SDE2E3FGHIRWXY/LB1

Departure

Time 2026-04-24 00:22
Airport Pyongyang Sunan International Airport (ZKPY)

Arrival

Time 2026-04-24 01:56
Airport Beijing Capital International Airport (ZBAA)
Time Latitude Longitude Altitude Speed Heading
2026-04-23 23:59 39.20000 125.67593 91 ft 0 kts 72°
2026-04-24 00:12 39.20000 125.67591 91 ft 1 kts 72°
2026-04-24 00:13 39.19995 125.67572 91 ft 2 kts 68°
2026-04-24 00:13 39.19988 125.67555 91 ft 2 kts 53°
2026-04-24 00:13 39.19978 125.67541 91 ft 2 kts 42°
2026-04-24 00:13 39.19966 125.67529 91 ft 2 kts 24°
2026-04-24 00:14 39.19951 125.67526 91 ft 2 kts 355°
2026-04-24 00:14 39.19937 125.67531 91 ft 2 kts 338°
2026-04-24 00:14 39.19924 125.67536 91 ft 0 kts 345°
2026-04-24 00:14 39.19923 125.67537 91 ft 0 kts 344°
2026-04-24 00:16 39.19955 125.67522 91 ft 10 kts 339°
2026-04-24 00:16 39.20018 125.67495 91 ft 13 kts 343°
2026-04-24 00:17 39.20116 125.67477 93 ft 14 kts
2026-04-24 00:17 39.20234 125.67421 94 ft 23 kts 330°
2026-04-24 00:17 39.20411 125.67344 94 ft 29 kts 344°
2026-04-24 00:17 39.20609 125.67273 94 ft 30 kts 345°
2026-04-24 00:18 39.20815 125.67182 94 ft 32 kts 343°
2026-04-24 00:18 39.20885 125.67157 95 ft 33 kts 345°
2026-04-24 00:18 39.20956 125.67132 95 ft 34 kts 344°
2026-04-24 00:19 39.21185 125.67040 96 ft 31 kts 343°
2026-04-24 00:19 39.21388 125.66961 98 ft 31 kts 342°
2026-04-24 00:19 39.21605 125.66874 98 ft 34 kts 342°
2026-04-24 00:19 39.21844 125.66785 98 ft 36 kts 342°
2026-04-24 00:20 39.22055 125.66681 100 ft 28 kts 308°
2026-04-24 00:20 39.22055 125.66576 101 ft 0 kts 262°
2026-04-24 00:21 39.22055 125.66570 101 ft 3 kts 261°
2026-04-24 00:21 39.21993 125.66465 101 ft 24 kts 193°
2026-04-24 00:21 39.21805 125.66531 101 ft 39 kts 163°
2026-04-24 00:21 39.21248 125.66760 102 ft 124 kts 165°
2026-04-24 00:22 39.20195 125.67179 147 ft 186 kts 162°
2026-04-24 00:22 39.18869 125.67676 752 ft 214 kts 167°
2026-04-24 00:22 39.17337 125.67871 1656 ft 228 kts 183°
2026-04-24 00:22 39.15711 125.67462 1949 ft 258 kts 205°
2026-04-24 00:23 39.14339 125.65997 2679 ft 263 kts 233°
2026-04-24 00:23 39.13586 125.63785 2637 ft 277 kts 261°
2026-04-24 00:23 39.13687 125.61363 2597 ft 268 kts 284°
2026-04-24 00:23 39.14391 125.59206 2589 ft 259 kts 303°
2026-04-24 00:24 39.15685 125.57650 2596 ft 259 kts 332°
2026-04-24 00:24 39.17391 125.56788 2598 ft 263 kts 342°
2026-04-24 00:24 39.19130 125.56092 2586 ft 262 kts 342°
2026-04-24 00:24 39.20876 125.55374 2586 ft 262 kts 341°
2026-04-24 00:25 39.22619 125.54622 2588 ft 262 kts 341°
2026-04-24 00:25 39.24394 125.53830 2985 ft 277 kts 340°
2026-04-24 00:25 39.26120 125.53056 4222 ft 265 kts 339°
2026-04-24 00:25 39.27864 125.52271 5188 ft 265 kts 339°
2026-04-24 00:26 39.29596 125.51490 6065 ft 267 kts 339°
2026-04-24 00:26 39.31337 125.50706 6924 ft 269 kts 339°
2026-04-24 00:26 39.33118 125.49903 7745 ft 272 kts 339°
2026-04-24 00:26 39.34908 125.49097 8558 ft 275 kts 339°
2026-04-24 00:27 39.36714 125.48283 9339 ft 278 kts 339°
2026-04-24 00:27 39.38536 125.47465 10090 ft 282 kts 340°
2026-04-24 00:27 39.40419 125.46618 10648 ft 293 kts 340°
2026-04-24 00:27 39.42393 125.45727 11080 ft 308 kts 340°
2026-04-24 00:28 39.44469 125.44791 11520 ft 323 kts 340°
2026-04-24 00:28 39.46645 125.43813 11963 ft 337 kts 340°
2026-04-24 00:28 39.48767 125.42591 12656 ft 340 kts 330°
2026-04-24 00:28 39.50751 125.40852 13377 ft 344 kts 322°
2026-04-24 00:29 39.52608 125.38896 14068 ft 349 kts 320°
2026-04-24 00:29 39.54435 125.36864 14805 ft 352 kts 320°
2026-04-24 00:29 39.56316 125.34771 15515 ft 354 kts 319°
2026-04-24 00:29 39.58205 125.32705 16202 ft 357 kts 320°
2026-04-24 00:30 39.60114 125.30651 16902 ft 360 kts 320°
2026-04-24 00:30 39.62053 125.28585 17511 ft 365 kts 320°
2026-04-24 00:30 39.64039 125.26478 18148 ft 368 kts 320°
2026-04-24 00:30 39.66007 125.24393 18872 ft 368 kts 320°
2026-04-24 00:31 39.67985 125.22292 19385 ft 374 kts 320°
2026-04-24 00:31 39.69931 125.20023 20073 ft 374 kts 315°
2026-04-24 00:31 39.71772 125.17643 20650 ft 378 kts 314°
2026-04-24 00:31 39.73611 125.15151 21228 ft 380 kts 313°
2026-04-24 00:32 39.75415 125.12673 21818 ft 382 kts 313°
2026-04-24 00:32 39.77240 125.10169 22385 ft 385 kts 313°
2026-04-24 00:32 39.79094 125.07638 22862 ft 389 kts 313°
2026-04-24 00:32 39.80965 125.05103 23454 ft 390 kts 313°
2026-04-24 00:33 39.82854 125.02554 23903 ft 394 kts 313°
2026-04-24 00:33 39.84770 124.99970 24444 ft 396 kts 313°
2026-04-24 00:33 39.86688 124.97383 24973 ft 398 kts 313°
2026-04-24 00:33 39.88605 124.94797 25471 ft 400 kts 313°
2026-04-24 00:34 39.90552 124.92168 25916 ft 403 kts 313°
2026-04-24 00:34 39.92509 124.89527 26332 ft 407 kts 313°
2026-04-24 00:34 39.94474 124.86873 26780 ft 409 kts 313°
2026-04-24 00:34 39.96447 124.84203 27215 ft 411 kts 313°
2026-04-24 00:35 39.98433 124.81512 27646 ft 413 kts 313°
2026-04-24 00:35 40.00430 124.78802 28016 ft 417 kts 313°
2026-04-24 00:35 40.02408 124.76117 28464 ft 418 kts 313°
2026-04-24 00:35 40.04430 124.73367 28791 ft 422 kts 313°
2026-04-24 00:36 40.06456 124.70609 29208 ft 423 kts 313°
2026-04-24 00:36 40.08507 124.67812 29571 ft 425 kts 313°
2026-04-24 00:36 40.10537 124.65040 29947 ft 427 kts 313°
2026-04-24 00:36 40.12595 124.62232 30324 ft 429 kts 313°
2026-04-24 00:37 40.14660 124.59408 30676 ft 431 kts 313°
2026-04-24 00:37 40.16719 124.56589 30989 ft 433 kts 313°
2026-04-24 00:37 40.18722 124.53607 31294 ft 435 kts 308°
2026-04-24 00:37 40.20446 124.50412 31603 ft 437 kts 302°
2026-04-24 00:38 40.21918 124.46901 32070 ft 435 kts 296°
2026-04-24 00:38 40.23051 124.43283 32555 ft 433 kts 290°
2026-04-24 00:38 40.23977 124.39573 32985 ft 432 kts 289°
2026-04-24 00:38 40.25061 124.35884 33286 ft 433 kts 295°
2026-04-24 00:39 40.26432 124.32453 33731 ft 430 kts 301°
2026-04-24 00:39 40.28136 124.29251 34083 ft 430 kts 310°
2026-04-24 00:39 40.30469 124.26765 34120 ft 437 kts 330°
2026-04-24 00:39 40.33314 124.25369 34137 ft 442 kts 344°
2026-04-24 00:40 40.39459 124.24284 34127 ft 442 kts 352°
2026-04-24 00:40 40.45595 124.23676 34111 ft 443 kts 356°
2026-04-24 00:41 40.51754 124.24397 34113 ft 446 kts
2026-04-24 00:41 40.57943 124.24507 34113 ft 442 kts 354°
2026-04-24 00:42 40.64056 124.24041 34107 ft 441 kts 352°
2026-04-24 00:42 40.70186 124.23394 34113 ft 441 kts 351°
2026-04-24 00:43 40.76289 124.22701 34107 ft 441 kts 351°
2026-04-24 00:43 40.82418 124.21995 34105 ft 440 kts 351°
2026-04-24 00:44 40.88553 124.21288 34094 ft 442 kts 351°
2026-04-24 00:44 40.94656 124.20592 34102 ft 441 kts 351°
2026-04-24 00:45 41.00785 124.19897 34091 ft 441 kts 351°
2026-04-24 00:45 41.06923 124.19204 34092 ft 441 kts 351°
2026-04-24 00:46 41.13026 124.18658 34088 ft 441 kts 352°
2026-04-24 00:46 41.19139 124.18174 34084 ft 441 kts 352°
2026-04-24 00:47 41.25290 124.17680 34081 ft 441 kts 351°
2026-04-24 00:47 41.31340 124.16874 34066 ft 434 kts 342°
2026-04-24 00:48 41.36879 124.13997 34061 ft 424 kts 327°
2026-04-24 00:48 41.41559 124.09399 34064 ft 416 kts 311°
2026-04-24 00:49 41.44963 124.03231 34056 ft 410 kts 297°
2026-04-24 00:49 41.47056 123.96255 34052 ft 408 kts 282°
2026-04-24 00:50 41.47630 123.88754 34051 ft 409 kts 273°
2026-04-24 00:50 41.47146 123.81244 34045 ft 411 kts 258°
2026-04-24 00:51 41.46158 123.73757 34051 ft 411 kts 269°
2026-04-24 00:51 41.46433 123.66215 34032 ft 408 kts 277°
2026-04-24 00:52 41.47252 123.58732 34041 ft 408 kts 279°
2026-04-24 00:52 41.48166 123.51233 34031 ft 409 kts 279°
2026-04-24 00:53 41.49047 123.43810 34028 ft 408 kts 279°
2026-04-24 00:53 41.49912 123.36316 34031 ft 409 kts 279°
2026-04-24 00:54 41.50760 123.28856 34027 ft 408 kts 278°
2026-04-24 00:54 41.51648 123.21379 34026 ft 407 kts 279°
2026-04-24 00:55 41.52561 123.13962 34017 ft 408 kts 279°
2026-04-24 00:55 41.53473 123.06516 34015 ft 406 kts 279°
2026-04-24 00:56 41.54378 122.99061 34013 ft 407 kts 279°
2026-04-24 00:56 41.55274 122.91592 34001 ft 407 kts 279°
2026-04-24 00:57 41.56168 122.84122 33999 ft 407 kts 279°
2026-04-24 00:58 41.57499 122.72923 33987 ft 405 kts 279°
2026-04-24 00:58 41.58366 122.65523 33996 ft 408 kts 279°
2026-04-24 00:59 41.59240 122.58048 33992 ft 406 kts 279°
2026-04-24 00:59 41.60107 122.50563 33986 ft 406 kts 279°
2026-04-24 01:00 41.60958 122.43151 33982 ft 406 kts 278°
2026-04-24 01:00 41.61812 122.35687 33986 ft 407 kts 279°
2026-04-24 01:01 41.62670 122.28191 33981 ft 407 kts 278°
2026-04-24 01:01 41.63517 122.20737 33972 ft 406 kts 278°
2026-04-24 01:02 41.64222 122.13286 33964 ft 406 kts 274°
2026-04-24 01:02 41.64135 122.05714 33974 ft 408 kts 267°
2026-04-24 01:03 41.63646 121.98219 33967 ft 406 kts 265°
2026-04-24 01:03 41.63093 121.90720 33963 ft 407 kts 265°
2026-04-24 01:04 41.62520 121.83189 33958 ft 408 kts 265°
2026-04-24 01:04 41.61950 121.75675 33964 ft 409 kts 266°
2026-04-24 01:05 41.61393 121.68193 33955 ft 407 kts 266°
2026-04-24 01:05 41.60832 121.60641 33958 ft 410 kts 266°
2026-04-24 01:06 41.60262 121.53140 33953 ft 408 kts 265°
2026-04-24 01:06 41.59683 121.45593 33957 ft 410 kts 265°
2026-04-24 01:07 41.59101 121.38023 33958 ft 410 kts 265°
2026-04-24 01:07 41.58516 121.30531 33946 ft 409 kts 265°
2026-04-24 01:08 41.57921 121.22964 33952 ft 410 kts 265°
2026-04-24 01:08 41.57354 121.15436 33962 ft 410 kts 266°
2026-04-24 01:09 41.56970 121.07863 33950 ft 409 kts 267°
2026-04-24 01:09 41.56639 121.00337 33942 ft 410 kts 267°
2026-04-24 01:10 41.56291 120.92770 33946 ft 410 kts 267°
2026-04-24 01:10 41.55919 120.85255 33954 ft 410 kts 267°
2026-04-24 01:11 41.55533 120.77624 33942 ft 408 kts 267°
2026-04-24 01:11 41.55158 120.70112 33945 ft 410 kts 267°
2026-04-24 01:12 41.54758 120.62514 33951 ft 409 kts 267°
2026-04-24 01:12 41.54356 120.54981 33945 ft 409 kts 267°
2026-04-24 01:13 41.53966 120.47431 33953 ft 410 kts 267°
2026-04-24 01:13 41.53603 120.39851 33952 ft 409 kts 269°
2026-04-24 01:14 41.53491 120.32321 33962 ft 409 kts 270°
2026-04-24 01:14 41.53444 120.24741 33956 ft 408 kts 269°
2026-04-24 01:15 41.53366 120.17161 33965 ft 410 kts 269°
2026-04-24 01:15 41.53277 120.09576 33971 ft 408 kts 269°
2026-04-24 01:16 41.53168 120.02029 33958 ft 408 kts 269°
2026-04-24 01:16 41.53052 119.94521 33968 ft 408 kts 269°
2026-04-24 01:17 41.52930 119.86946 33965 ft 409 kts 269°
2026-04-24 01:17 41.52808 119.79346 33971 ft 409 kts 269°
2026-04-24 01:18 41.52671 119.71834 33970 ft 408 kts 269°
2026-04-24 01:18 41.52536 119.64246 33971 ft 408 kts 269°
2026-04-24 01:19 41.52401 119.56686 33980 ft 409 kts 269°
2026-04-24 01:19 41.52246 119.49128 33972 ft 407 kts 269°
2026-04-24 01:20 41.52099 119.41569 33971 ft 408 kts 269°
2026-04-24 01:20 41.51940 119.34070 33971 ft 408 kts 269°
2026-04-24 01:21 41.51774 119.26463 33983 ft 408 kts 268°
2026-04-24 01:21 41.51596 119.18956 33974 ft 408 kts 268°
2026-04-24 01:22 41.51422 119.11401 33973 ft 408 kts 268°
2026-04-24 01:22 41.51241 119.03880 33974 ft 407 kts 269°
2026-04-24 01:23 41.51085 118.96336 33968 ft 408 kts 269°
2026-04-24 01:23 41.50935 118.88781 33970 ft 407 kts 268°
2026-04-24 01:24 41.50739 118.81243 33992 ft 409 kts 268°
2026-04-24 01:24 41.50521 118.73674 33990 ft 409 kts 268°
2026-04-24 01:25 41.50323 118.66126 33985 ft 409 kts 269°
2026-04-24 01:25 41.50162 118.58527 33996 ft 410 kts 269°
2026-04-24 01:26 41.50013 118.50969 34008 ft 408 kts 269°
2026-04-24 01:26 41.49834 118.43366 34019 ft 410 kts 269°
2026-04-24 01:27 41.49823 118.35752 34011 ft 409 kts 271°
2026-04-24 01:27 41.49945 118.28184 34025 ft 409 kts 271°
2026-04-24 01:28 41.50072 118.20624 34023 ft 409 kts 271°
2026-04-24 01:28 41.50169 118.13059 34006 ft 412 kts 271°
2026-04-24 01:29 41.50250 118.05447 33999 ft 410 kts 271°
2026-04-24 01:29 41.50324 117.97896 34011 ft 411 kts 271°
2026-04-24 01:30 41.50385 117.90231 34014 ft 411 kts 271°
2026-04-24 01:30 41.50442 117.82664 34012 ft 410 kts 271°
2026-04-24 01:31 41.50497 117.75053 34013 ft 411 kts 270°
2026-04-24 01:31 41.50547 117.67442 34020 ft 411 kts 270°
2026-04-24 01:32 41.50591 117.59875 34019 ft 410 kts 271°
2026-04-24 01:32 41.50632 117.52293 34019 ft 411 kts 270°
2026-04-24 01:33 41.50484 117.44705 34021 ft 410 kts 263°
2026-04-24 01:33 41.49007 117.37368 34019 ft 413 kts 250°
2026-04-24 01:34 41.46115 117.30824 33799 ft 412 kts 234°
2026-04-24 01:34 41.44163 117.28007 33263 ft 413 kts 227°
2026-04-24 01:34 41.41947 117.25569 32587 ft 416 kts 220°
2026-04-24 01:34 41.39514 117.23514 31812 ft 422 kts 213°
2026-04-24 01:35 41.36820 117.21912 30968 ft 430 kts 204°
2026-04-24 01:35 41.33914 117.20747 30074 ft 437 kts 199°
2026-04-24 01:35 41.30973 117.19816 29146 ft 443 kts 197°
2026-04-24 01:35 41.27939 117.18935 28153 ft 448 kts 196°
2026-04-24 01:36 41.24919 117.18087 27136 ft 453 kts 195°
2026-04-24 01:36 41.21813 117.17223 26042 ft 459 kts 195°
2026-04-24 01:36 41.18665 117.16342 24878 ft 465 kts 195°
2026-04-24 01:36 41.15540 117.15446 23707 ft 470 kts 195°
2026-04-24 01:37 41.12315 117.14526 22876 ft 466 kts 195°
2026-04-24 01:37 41.09192 117.13647 22175 ft 461 kts 194°
2026-04-24 01:37 41.06042 117.12766 21409 ft 457 kts 194°
2026-04-24 01:37 41.02988 117.11908 20619 ft 455 kts 194°
2026-04-24 01:38 40.99861 117.11028 19787 ft 452 kts 194°
2026-04-24 01:38 40.96836 117.10176 18972 ft 450 kts 194°
2026-04-24 01:38 40.93744 117.09285 18112 ft 455 kts 195°
2026-04-24 01:38 40.90617 117.08363 17253 ft 477 kts 194°
2026-04-24 01:39 40.87382 117.07441 16338 ft 468 kts 194°
2026-04-24 01:39 40.84241 117.06565 15555 ft 449 kts 194°
2026-04-24 01:39 40.81340 117.05770 15750 ft 410 kts 194°
2026-04-24 01:39 40.78612 117.05024 15531 ft 403 kts 194°
2026-04-24 01:40 40.75862 117.04143 14834 ft 405 kts 199°
2026-04-24 01:40 40.73289 117.02779 14116 ft 399 kts 211°
2026-04-24 01:40 40.70995 117.00775 13437 ft 393 kts 220°
2026-04-24 01:40 40.68911 116.98525 12864 ft 386 kts 223°
2026-04-24 01:41 40.66916 116.96197 12739 ft 377 kts 224°
2026-04-24 01:41 40.64952 116.93881 12744 ft 385 kts 224°
2026-04-24 01:41 40.62930 116.91518 12758 ft 390 kts 224°
2026-04-24 01:41 40.60898 116.89175 12747 ft 389 kts 223°
2026-04-24 01:42 40.58864 116.86859 12745 ft 388 kts 223°
2026-04-24 01:42 40.56819 116.84580 12754 ft 390 kts 220°
2026-04-24 01:42 40.54514 116.82615 12745 ft 393 kts 208°
2026-04-24 01:42 40.51907 116.81532 12755 ft 398 kts 191°
2026-04-24 01:43 40.49162 116.81475 12759 ft 401 kts 178°
2026-04-24 01:43 40.46368 116.81853 12523 ft 397 kts 175°
2026-04-24 01:43 40.43678 116.82286 11785 ft 392 kts 175°
2026-04-24 01:43 40.40983 116.82736 11226 ft 385 kts 175°
2026-04-24 01:44 40.38384 116.83167 10988 ft 371 kts 175°
2026-04-24 01:44 40.35855 116.83582 10832 ft 355 kts 175°
2026-04-24 01:44 40.33469 116.83968 10683 ft 341 kts 176°
2026-04-24 01:44 40.31157 116.84337 10534 ft 329 kts 176°
2026-04-24 01:45 40.28892 116.84679 10363 ft 318 kts 178°
2026-04-24 01:45 40.26722 116.84719 10186 ft 305 kts 189°
2026-04-24 01:45 40.24778 116.83909 9939 ft 290 kts 216°
2026-04-24 01:45 40.23375 116.82083 9565 ft 281 kts 241°
2026-04-24 01:46 40.22630 116.79796 9197 ft 275 kts 257°
2026-04-24 01:46 40.22284 116.77367 8854 ft 270 kts 265°
2026-04-24 01:46 40.22400 116.74947 8487 ft 266 kts 287°
2026-04-24 01:46 40.23279 116.72847 8155 ft 262 kts 309°
2026-04-24 01:47 40.24607 116.71258 7833 ft 260 kts 323°
2026-04-24 01:47 40.26242 116.70254 7505 ft 262 kts 345°
2026-04-24 01:47 40.28038 116.69930 7185 ft 261 kts 352°
2026-04-24 01:47 40.29847 116.69733 6843 ft 258 kts 352°
2026-04-24 01:48 40.31600 116.69520 6671 ft 248 kts 351°
2026-04-24 01:48 40.33252 116.69222 6595 ft 233 kts 342°
2026-04-24 01:48 40.34656 116.68390 6524 ft 213 kts 316°
2026-04-24 01:48 40.35516 116.66911 6458 ft 202 kts 294°
2026-04-24 01:49 40.35985 116.65183 6261 ft 204 kts 281°
2026-04-24 01:49 40.35959 116.63366 6000 ft 199 kts 256°
2026-04-24 01:49 40.35511 116.61680 5770 ft 194 kts 252°
2026-04-24 01:49 40.35059 116.60023 5552 ft 189 kts 251°
2026-04-24 01:50 40.34415 116.58554 5336 ft 190 kts 228°
2026-04-24 01:50 40.33241 116.57689 5096 ft 199 kts 196°
2026-04-24 01:50 40.31847 116.57593 4719 ft 206 kts 177°
2026-04-24 01:50 40.30410 116.57863 4403 ft 206 kts 174°
2026-04-24 01:51 40.28997 116.58125 4149 ft 202 kts 175°
2026-04-24 01:51 40.27633 116.58344 4031 ft 195 kts 176°
2026-04-24 01:51 40.26282 116.58556 3731 ft 198 kts 176°
2026-04-24 01:51 40.24897 116.58774 3431 ft 197 kts 175°
2026-04-24 01:52 40.23545 116.58988 3145 ft 197 kts 175°
2026-04-24 01:52 40.22214 116.59204 2909 ft 192 kts 174°
2026-04-24 01:52 40.20923 116.59406 2639 ft 181 kts 175°
2026-04-24 01:52 40.19709 116.59594 2305 ft 167 kts 174°
2026-04-24 01:53 40.18599 116.59766 2117 ft 150 kts 174°
2026-04-24 01:53 40.17559 116.59928 1886 ft 150 kts 173°
2026-04-24 01:53 40.16513 116.60092 1666 ft 153 kts 172°
2026-04-24 01:53 40.15458 116.60263 1445 ft 151 kts 173°
2026-04-24 01:54 40.14422 116.60425 1229 ft 151 kts 173°
2026-04-24 01:54 40.13369 116.60590 1011 ft 152 kts 173°
2026-04-24 01:54 40.12318 116.60756 791 ft 150 kts 173°
2026-04-24 01:54 40.11305 116.60913 571 ft 143 kts 173°
2026-04-24 01:55 40.10333 116.61066 385 ft 141 kts 173°
2026-04-24 01:55 40.09349 116.61219 190 ft 142 kts 173°
2026-04-24 01:55 40.08382 116.61365 142 ft 132 kts 172°
2026-04-24 01:55 40.07523 116.61511 125 ft 119 kts 174°
2026-04-24 01:56 40.06773 116.61635 124 ft 90 kts 172°
2026-04-24 01:56 40.06260 116.61719 124 ft 59 kts 173°
2026-04-24 01:56 40.05962 116.61706 124 ft 33 kts 231°
2026-04-24 01:56 40.05924 116.61435 124 ft 31 kts 264°
2026-04-24 01:57 40.05900 116.61162 124 ft 24 kts 273°
2026-04-24 01:57 40.05883 116.61021 124 ft 13 kts 248°
2026-04-24 01:57 40.05876 116.60998 124 ft 0 kts 248°
2026-04-24 01:57 40.05878 116.61005 124 ft 2 kts 248°
2026-04-24 01:58 40.05877 116.61001 124 ft 0 kts 248°